Regional Weather Roundup
Issued by NWS

Home | Current Version | Previous Version | Text Only | Print | Product List | Glossary On
Versions: 1 2 3 4 5 6 7 8 9 10 11 12 13 14 15 16 17 18 19 20 21 22 23 24 25 26 27 28 29 30 31 32 33 34 35 36 37 38 39 40 41 42 43 44 45 46 47 48 49 50
000
ASUS43 KTOP 250508
RWRKS

WEATHER ROUNDUP FOR KANSAS
NATIONAL WEATHER SERVICE GOODLAND KS
1200 AM CDT SUN JUN 25 2017

NOTE:  "FAIR" INDICATES FEW OR NO CLOUDS BELOW 12,000 FEET WITH NO
SIGNIFICANT WEATHER AND/OR OBSTRUCTIONS TO VISIBILITY.

KSZ001>006-013>018-027>032-041>047-250600-
NORTHWEST KANSAS

CITY           SKY/WX    TMP DP  RH WIND       PRES   REMARKS
GOODLAND       CLOUDY    60  49  66 E9        30.31S
HAYS           PTCLDY    63  50  62 E5        30.27R
HILL CITY      CLOUDY    64  52  64 NE6       30.30R
RUSSELL        CLOUDY    66  46  48 E8        30.25S
$$

KSZ061>065-074>080-084>089-250600-
SOUTHWEST KANSAS

CITY           SKY/WX    TMP DP  RH WIND       PRES   REMARKS
DODGE CITY     CLOUDY    70  55  59 S8        30.27R
ELKHART          N/A     66  52  61 SE3         N/A
GARDEN CITY    CLOUDY    70  54  56 SE8       30.28R
GREAT BEND     PTCLDY    68  47  46 E10       30.27R
LIBERAL        CLOUDY    72  53  51 SE10      30.28S
PRATT          CLOUDY    71  50  47 S3        30.25S
$$

KSZ066>073-081>083-090>101-250600-
SOUTHEAST KANSAS

CITY           SKY/WX    TMP DP  RH WIND       PRES   REMARKS
CHANUTE        CLOUDY    63  54  72 S5        30.24R
COFFEYVILLE    CLOUDY    67  55  65 CALM      30.23S
HUTCHINSON     MOCLDY    67  53  61 NE5       30.25R
MEDICINE LODGE   N/A     74  51  44 SE8       30.24R
NEWTON         CLEAR     65  54  67 E6        30.27R
PARSONS        CLOUDY    60  54  80 CALM      30.25R
WICHITA INTL   MOCLDY    68  55  63 SE5       30.24R
WICHITA JABRA  PTCLDY    66  54  65 S6        30.25R
WICHITA MCCONL CLEAR     69  53  57 S6        30.25R
WINFIELD       CLEAR     68  53  58 SE3       30.25R
$$

KSZ007>012-019>026-033>040-048>060-102>105-250600-
NORTHEAST KANSAS

CITY           SKY/WX    TMP DP  RH WIND       PRES   REMARKS
CONCORDIA      CLOUDY    65  51  60 SW8       30.24S
EMPORIA        PTCLDY    63  53  70 S8        30.25R
LAWRENCE       CLOUDY    62  59  90 NW5       30.21R
MANHATTAN      LGT RAIN  68  55  63 S5        30.23R
MARYSVILLE     CLOUDY    61  46  59 W3        30.22S
OLATHE IND     MOCLDY    65  52  62 S5        30.22R
OLATHE EXE     PTCLDY    66  53  63 SW5       30.21S
SALINA         CLOUDY    74  46  36 SE6       30.26R
TOPEKA BILLARD CLOUDY    69  56  62 CALM      30.21R
TOPEKA FORBES  CLOUDY    68  56  65 SW6       30.22R
$$




USA.gov is the U.S. government's official web portal to all federal, state and local government web resources and services.